Temp
25 23 23 23 24 25 26 26 27 27 27 28 28 26 26 25 25 29 31 32 33 30 29 30 30 30 30 30 32 33 33 32 32 31 31 32 31 31 29 24 22 22 24 27 26 26 25 25 24 22 19 16 15 16 18 18 16 16 16 17 18 19 19 20 21 21 21 21 21 20 20 21 21 21 21 21 21 20 20 19 19 18 18 18 17 17
25 22 23 24 25 26 26 27 27 27 27 28 27 25 26 26 26 30 32 32 33 30 28 30 30 30 31 31 32 33 32 31 31 31 31 31 31 31 28 24 24 24 24 26 26 25 26 25 23 19 16 16 16 17 17 17 15 15 16 16 17 17 18 19 20 20 20 21 20 20 21 22 22 22 21 21 21 20 19 19 19 18 18 18 17 17
23 22 24 26 26 27 27 27 27 26 27 27 26 25 24 27 28 29 32 32 32 29 28 30 29 29 31 31 32 32 32 31 31 31 31 31 31 31 28 24 25 25 26 25 24 25 25 23 20 17 16 17 18 17 16 16 15 16 17 18 17 17 17 17 18 18 18 19 19 20 22 22 21 21 21 21 21 20 19 19 19 18 18 18 18 17
22 23 25 26 27 27 26 27 27 26 26 26 26 24 23 27 27 25 29 32 32 30 29 30 29 29 31 31 31 32 32 33 32 31 32 31 31 31 28 26 25 26 27 26 25 24 21 19 18 17 16 16 17 16 16 16 17 17 19 20 19 19 19 18 18 17 18 20 20 21 22 21 21 21 21 20 20 20 20 19 19 19 18 18 18 17
23 25 27 27 27 27 26 27 27 26 25 25 26 24 24 27 27 26 29 31 30 29 29 29 26 26 29 30 30 32 32 32 32 32 31 31 32 31 28 25 25 25 25 24 23 20 18 18 18 16 16 16 16 16 17 18 18 18 20 20 20 19 19 19 19 19 19 20 21 21 21 21 21 21 21 20 20 20 20 20 19 19 19 19 18 18
25 27 28 27 27 27 27 26 26 25 23 24 25 26 26 27 28 29 30 29 25 24 27 27 22 22 27 29 30 32 31 31 32 32 31 30 32 30 26 25 24 24 23 20 18 18 18 19 17 16 16 17 17 17 18 18 19 20 20 20 20 20 20 20 20 20 20 20 21 21 21 21 21 21 21 21 20 21 20 20 20 19 19 19 19 18
26 28 28 27 27 28 27 25 26 26 23 22 25 27 27 27 27 28 28 26 22 22 27 28 22 21 25 27 30 31 30 30 31 32 30 31 31 29 26 25 24 24 22 18 17 17 18 18 17 17 17 16 16 17 18 18 19 20 20 20 21 21 20 21 21 21 20 21 21 21 21 21 21 20 20 20 20 20 20 20 20 19 19 19 19 19
27 27 27 28 27 27 25 25 26 27 23 22 27 28 27 27 27 27 27 25 24 24 26 27 25 22 22 25 30 31 29 30 31 30 31 31 29 26 25 26 25 24 20 18 18 18 18 18 18 17 17 16 16 16 17 17 18 20 20 20 21 20 20 20 21 21 21 21 21 21 21 21 20 20 20 20 20 20 20 20 20 20 20 19 19 19
27 26 26 27 26 25 25 25 27 27 25 25 28 29 28 28 28 28 27 25 26 24 22 24 25 22 21 25 30 31 29 29 30 30 31 30 27 25 25 25 24 21 18 18 19 18 17 17 17 17 17 17 16 16 17 17 19 20 20 20 20 20 20 20 21 21 21 21 21 20 21 21 21 20 20 20 20 20 20 19 20 20 20 19 19 19
27 27 27 27 26 25 26 27 28 27 26 27 28 28 29 29 28 28 27 25 24 23 21 22 24 22 21 24 27 28 27 28 30 30 31 31 27 25 26 25 22 18 18 19 18 17 17 17 17 17 17 17 17 17 17 17 19 19 19 19 19 20 20 20 20 20 20 20 20 20 21 21 21 21 20 20 20 20 19 19 19 19 19 19 19 19
27 28 28 27 26 26 27 28 28 28 28 28 28 28 28 28 28 27 26 25 23 21 21 23 24 23 21 23 26 27 28 29 30 30 31 31 27 25 26 26 22 18 18 18 17 17 17 16 16 17 17 17 17 17 17 17 18 18 18 18 19 19 20 19 20 20 20 20 20 20 21 21 21 20 20 20 20 20 20 19 19 19 19 19 19 19
27 27 27 27 28 28 27 27 28 29 29 28 28 27 25 25 25 24 23 23 22 21 22 24 25 23 21 22 26 28 29 30 29 30 30 30 28 26 27 26 22 19 18 17 17 17 16 16 16 17 17 17 17 17 17 17 17 18 18 19 19 19 19 19 19 20 20 20 20 20 20 20 20 20 20 20 20 20 20 20 19 19 19 19 19 18
25 27 27 27 27 28 27 26 27 29 28 27 27 24 22 22 22 21 21 22 21 21 23 25 25 23 21 23 27 28 29 29 28 28 29 30 29 27 27 25 21 19 18 18 17 17 16 16 16 17 17 17 17 17 17 17 17 18 18 20 19 19 19 19 19 19 19 20 20 20 20 20 20 20 20 20 20 20 20 20 19 19 19 19 19 18
23 25 27 26 26 27 27 25 24 25 26 26 25 23 21 21 21 21 21 21 21 21 23 25 24 22 22 25 28 28 27 28 27 27 27 28 27 27 25 22 19 18 18 17 17 16 17 17 17 17 17 17 17 17 17 17 17 18 18 19 19 18 19 19 19 19 19 19 20 20 20 20 20 20 20 20 20 20 20 20 20 19 19 19 19 18
21 22 25 26 26 27 27 26 26 26 26 26 27 25 22 21 21 21 21 21 21 21 23 24 23 21 21 24 28 27 27 28 27 27 27 26 26 27 25 21 18 18 18 17 17 16 17 17 17 17 17 17 18 17 17 17 17 18 18 18 18 18 18 19 19 19 19 19 19 19 19 19 19 19 19 20 20 20 20 19 19 19 19 19 18 18
21 22 26 27 27 27 27 27 28 28 25 26 28 26 23 23 23 21 21 21 21 21 22 22 22 22 23 25 27 27 28 28 27 27 27 26 26 27 26 21 18 18 18 18 17 17 17 17 17 17 18 18 18 17 17 17 17 18 18 18 18 17 18 18 19 19 19 19 19 19 19 19 19 19 19 20 19 19 19 19 19 19 19 18 18 18
21 22 27 28 27 28 27 27 29 27 25 25 26 24 25 27 25 21 21 22 21 21 21 21 21 22 23 25 27 27 27 27 27 27 26 25 25 26 26 23 19 18 19 19 18 17 17 17 18 18 17 17 18 18 17 17 18 18 19 19 18 17 17 18 18 18 18 19 19 19 19 19 19 19 19 19 19 19 19 19 19 19 18 18 17 17
22 22 26 27 26 28 29 28 28 28 27 25 23 24 27 28 26 23 21 21 21 21 21 21 21 21 22 22 26 27 26 25 26 26 24 22 23 22 23 23 20 19 19 18 17 16 16 16 17 17 16 16 17 18 18 18 18 18 18 19 18 17 17 17 18 18 18 18 18 18 19 19 19 19 19 19 19 18 18 18 18 18 18 17 17 17
24 21 23 26 27 28 29 28 26 28 29 27 25 27 26 24 22 22 21 21 21 21 21 21 21 21 21 22 24 25 25 24 25 24 22 21 20 19 19 20 20 18 17 17 16 15 15 15 16 16 15 15 16 17 18 18 18 18 19 19 18 17 17 17 17 17 18 18 18 18 18 18 18 19 18 18 18 18 18 17 18 17 17 17 17 17
24 22 21 25 27 28 28 26 24 25 28 28 27 28 27 24 22 22 22 21 21 20 21 21 21 20 21 22 23 24 24 24 23 22 21 19 18 18 18 18 19 18 17 16 16 15 15 15 15 15 14 15 16 16 18 19 18 18 18 18 18 17 17 17 17 17 17 17 18 18 18 18 18 18 18 18 18 17 17 17 17 17 17 17 17 17
24 22 21 23 27 26 25 25 25 24 26 26 25 24 25 25 24 23 22 22 22 21 21 21 20 20 21 22 23 23 24 23 21 20 19 18 17 17 17 17 18 18 17 16 16 15 15 16 16 16 16 17 18 17 18 19 18 18 18 18 18 18 17 17 17 17 17 17 18 18 18 18 18 18 18 18 18 17 17 17 17 17 17 17 17 17
24 23 21 21 23 23 24 27 27 27 27 26 24 24 24 24 23 22 21 22 22 21 21 21 20 19 20 22 23 23 23 22 20 19 19 19 18 17 17 16 16 16 16 16 17 17 17 19 20 20 20 19 19 18 18 18 18 18 18 18 18 18 18 17 17 17 17 17 17 18 18 18 18 18 18 18 17 17 17 17 17 16 16 17 17 17
23 23 21 21 22 23 24 27 27 27 28 27 26 26 26 25 23 21 21 22 22 21 22 21 20 19 20 22 22 22 22 21 20 20 20 20 20 19 19 18 17 17 16 17 19 20 20 21 22 22 21 20 20 19 18 19 19 19 19 19 19 18 18 18 18 18 17 17 17 17 17 17 18 18 18 17 17 17 17 17 17 17 17 17 17 17
23 23 21 20 22 23 24 26 27 27 27 26 26 27 26 26 25 23 23 23 22 21 21 21 19 19 20 21 21 20 21 20 19 20 21 20 20 20 20 20 20 19 19 19 21 21 20 21 20 20 20 20 19 19 19 19 20 19 19 20 19 19 19 19 19 18 18 18 17 17 17 17 17 18 17 17 17 17 17 17 17 17 17 17 17 17
22 21 20 19 19 20 22 23 24 25 25 25 25 26 26 26 26 25 24 23 22 21 21 21 19 18 20 22 21 20 20 20 19 19 20 20 20 20 20 20 20 21 20 20 20 20 20 19 19 19 20 19 19 19 19 19 19 19 19 19 19 20 20 19 19 19 19 18 17 17 17 17 17 17 17 17 17 17 17 17 17 17 17 17 17 18
21 20 21 19 18 19 19 20 20 21 22 23 25 26 26 26 25 24 22 22 21 21 22 21 19 19 20 21 21 20 20 20 20 20 19 20 20 19 19 19 20 20 20 20 20 20 19 19 18 18 19 19 19 19 19 19 19 19 19 19 19 19 19 19 19 19 19 18 17 17 17 17 17 17 17 17 17 17 17 17 17 17 17 18 18 18
21 21 21 20 20 20 19 20 21 21 21 22 23 24 24 25 26 24 22 21 21 20 20 19 19 19 20 21 20 20 20 19 19 19 19 19 19 19 19 19 19 20 20 20 20 20 19 19 18 18 18 19 19 19 19 18 18 18 18 18 19 19 19 19 19 19 18 18 17 17 17 17 17 17 17 17 17 17 17 17 17 17 18 18 18 18
21 20 20 20 20 21 20 20 21 21 21 21 22 22 22 23 24 23 21 21 22 20 18 19 20 19 19 20 20 19 19 19 19 19 19 19 19 19 19 18 18 19 19 19 19 19 19 20 20 19 19 19 18 18 17 16 16 15 15 15 16 17 19 19 19 19 18 18 17 17 18 17 17 17 17 17 17 17 17 17 17 17 18 18 18 18
20 20 20 20 20 21 21 20 21 20 20 21 22 22 22 22 21 21 21 21 22 21 19 19 20 19 19 20 19 19 19 19 19 19 19 19 19 18 18 18 18 18 18 17 17 18 18 18 19 20 19 19 18 17 16 15 15 15 14 14 14 14 16 16 17 18 18 18 17 17 18 17 17 18 17 17 17 17 17 17 17 17 17 18 18 18
20 20 21 21 20 20 21 20 21 20 20 20 21 22 22 21 20 19 20 20 20 20 20 19 19 18 19 19 18 18 19 18 18 19 19 19 18 18 17 17 17 16 16 16 16 16 16 17 18 19 19 19 19 18 17 16 16 16 15 15 14 14 15 15 15 15 16 16 17 17 18 17 17 17 17 17 17 17 17 17 17 17 17 18 18 18
21 20 21 21 20 20 21 21 20 20 20 19 20 21 21 21 19 18 18 19 19 18 18 18 16 16 17 18 18 18 19 19 18 18 19 18 18 17 17 16 16 16 15 15 15 15 15 15 16 16 17 17 17 18 18 18 18 17 17 17 16 16 17 15 14 14 14 14 16 17 17 17 17 17 17 17 17 17 17 16 17 17 17 18 18 18
19 20 20 20 19 19 21 21 20 20 20 19 19 19 20 20 19 18 18 18 18 17 16 16 15 15 16 17 17 17 18 18 18 18 18 17 17 16 15 15 15 15 14 14 14 14 14 14 14 15 15 15 16 16 16 17 18 18 18 18 18 18 17 16 15 15 15 15 15 17 17 17 17 16 16 16 16 16 16 16 16 16 17 17 17 17
17 18 19 19 18 18 20 21 20 20 19 18 18 19 19 20 19 18 18 18 19 18 16 16 15 15 16 17 17 17 18 18 18 17 16 16 15 14 14 13 13 13 13 13 12 12 12 12 13 13 13 14 14 14 14 14 15 17 17 18 19 19 19 17 17 17 17 16 16 17 17 17 17 16 16 16 16 16 16 16 16 16 16 16 16 16
16 18 18 17 17 18 19 19 19 19 17 16 16 18 19 20 19 18 18 18 19 18 18 17 17 16 16 16 17 17 17 17 16 15 15 14 13 13 12 12 12 12 11 11 11 11 11 11 11 11 11 12 12 12 12 12 12 14 15 15 16 17 19 18 17 17 17 17 17 17 17 17 17 16 16 16 16 16 15 15 15 16 16 16 15 16
15 18 18 16 16 17 17 16 16 16 15 15 16 18 19 19 18 17 17 18 18 18 17 17 17 17 16 16 16 15 15 15 15 14 14 14 13 12 12 12 11 11 10 10 10 10 9 9 8 8 9 10 10 10 11 11 11 12 12 13 13 14 16 17 17 16 16 16 16 16 17 17 17 17 17 17 16 16 15 15 15 15 15 15 15 15
17 18 18 17 16 16 16 16 15 14 15 15 16 17 17 17 17 16 16 17 18 17 17 17 17 17 16 16 15 15 15 15 14 14 14 14 13 13 12 11 11 9 8 8 8 8 8 8 7 7 7 8 8 9 9 9 10 11 12 12 12 13 14 15 15 15 14 14 15 15 15 16 16 16 16 17 17 17 16 16 16 16 16 15 15 15
19 18 17 16 15 14 16 16 14 13 14 15 15 15 16 16 16 16 15 15 17 18 17 17 17 16 16 15 15 14 14 14 13 12 13 13 13 12 12 11 11 10 8 7 6 6 7 7 7 7 7 7 8 8 8 9 10 11 11 11 12 12 12 13 13 13 13 14 14 14 14 15 15 15 15 16 16 16 16 16 16 16 16 16 16 15
20 19 18 17 15 15 16 15 14 13 13 13 13 14 15 16 16 17 16 15 16 18 17 16 16 15 15 14 14 13 13 12 11 11 12 13 12 12 11 11 11 10 10 8 7 7 7 7 7 8 7 8 8 8 8 9 9 10 10 10 11 12 12 12 12 12 12 13 13 13 13 14 14 14 15 15 15 15 15 15 16 16 16 16 16 16
20 19 19 18 16 16 16 15 14 13 12 11 12 12 14 15 16 16 16 14 15 17 16 15 15 14 14 13 13 13 13 11 10 11 12 12 12 12 12 12 12 11 11 10 9 9 9 9 9 9 9 9 10 9 9 10 10 10 10 10 10 12 12 12 12 12 12 12 12 12 12 13 14 14 14 14 14 14 14 15 15 15 16 16 16 16
17 18 18 17 17 17 17 15 14 12 11 12 13 13 13 14 15 15 14 13 15 17 16 15 15 14 13 13 13 13 13 12 11 11 12 12 12 12 12 12 12 12 12 11 10 10 11 10 10 10 9 10 10 10 10 11 11 11 11 11 11 12 12 11 11 11 11 11 11 12 12 13 13 14 14 14 14 14 14 14 14 14 15 15 15 16
16 17 17 17 17 17 17 15 12 11 11 12 13 14 14 14 14 13 13 14 16 16 16 16 15 14 14 13 13 13 13 13 12 12 12 12 12 12 12 12 12 12 11 11 10 11 11 11 11 10 10 10 10 10 10 10 10 11 11 11 11 11 11 10 10 10 10 11 11 11 12 12 12 12 12 12 13 13 13 13 14 14 14 15 15 15
15 15 16 16 16 16 16 15 12 11 11 12 13 15 15 14 12 13 14 16 16 16 16 15 14 13 13 13 13 13 13 13 13 13 13 12 12 12 12 12 12 11 11 10 10 10 11 11 11 10 10 10 10 10 10 10 10 10 10 10 10 10 9 9 9 9 9 10 10 10 10 10 11 11 11 11 12 12 12 13 13 13 14 14 14 15
15 14 15 14 14 15 15 14 11 10 11 13 14 14 15 14 13 14 15 15 15 15 15 14 13 12 13 13 13 13 13 13 13 12 12 12 12 12 12 12 11 11 11 11 10 10 10 11 10 10 10 10 9 9 9 9 9 9 9 9 9 9 9 9 9 9 9 9 9 9 9 9 10 10 10 10 11 11 12 12 12 13 13 13 14 14
14 14 14 13 13 14 13 11 11 11 12 14 13 13 13 14 15 16 15 14 15 15 14 13 13 13 13 13 12 12 12 12 12 12 12 11 11 12 11 11 11 11 11 11 10 10 10 10 10 10 10 9 9 9 9 9 9 9 9 9 9 9 9 9 9 9 9 9 9 9 9 9 9 9 9 9 10 10 11 11 12 12 13 13 13 14
14 14 14 13 13 13 12 12 12 13 13 14 14 14 14 14 15 15 13 12 13 14 13 13 12 12 13 13 12 12 12 12 11 11 11 11 11 11 11 11 11 11 11 10 10 9 10 10 10 10 9 9 9 9 9 9 9 9 10 10 10 10 10 10 10 9 9 9 9 9 9 9 9 9 9 9 9 9 10 10 11 11 12 12 13 13
15 15 15 14 13 13 13 13 13 13 13 13 13 14 14 14 14 13 12 11 11 11 11 11 10 10 11 12 12 12 11 11 11 11 11 11 11 11 11 11 10 10 10 10 9 9 9 10 10 10 9 9 9 9 10 10 10 10 10 10 10 10 10 9 9 9 9 9 9 9 9 9 9 9 9 9 9 9 9 9 10 10 11 12 12 13
15 15 15 14 13 12 12 12 13 12 12 12 12 12 13 13 13 12 11 11 11 11 10 10 10 10 10 10 10 10 10 11 11 11 11 11 11 11 11 10 10 10 10 9 9 9 9 10 10 9 9 9 10 10 10 10 10 10 10 10 10 9 9 9 9 8 8 8 8 8 8 8 8 8 8 8 8 9 9 9 9 9 10 11 12 12
14 14 14 14 13 12 12 12 13 12 12 13 12 12 12 12 12 12 11 11 11 11 11 11 11 10 10 9 9 9 9 9 10 10 10 11 11 11 11 10 10 10 9 9 9 8 9 9 9 9 10 10 10 10 10 9 9 9 9 9 9 9 8 8 8 7 7 7 7 7 7 7 7 7 8 8 8 8 9 9 9 9 9 10 10 11
14 14 14 14 12 11 12 12 12 12 12 12 12 12 12 12 11 11 11 11 11 11 11 11 11 11 10 10 10 10 10 9 9 9 10 10 11 10 10 10 9 9 9 9 8 8 9 9 9 9 9 10 9 9 9 9 9 9 9 8 8 8 7 7 7 6 6 6 6 6 6 6 6 6 7 7 7 7 8 8 8 9 8 8 9 9
14 13 13 13 12 11 11 12 12 11 11 11 12 12 12 12 12 11 11 11 11 11 11 11 11 11 11 11 11 10 10 9 9 9 10 10 10 10 9 9 9 9 9 9 8 9 9 9 9 9 9 9 9 8 8 8 8 8 8 8 8 7 7 6 6 6 6 6 6 6 6 6 6 6 6 6 6 6 7 7 7 8 8 8 8 8
13 12 13 12 11 11 11 12 12 12 11 11 12 12 12 12 12 12 11 11 11 11 11 11 11 11 11 11 10 10 10 9 9 9 9 9 10 9 9 8 8 8 8 8 8 9 9 9 8 8 8 8 8 8 8 8 8 8 8 7 7 6 6 5 5 5 5 5 5 5 5 5 5 5 5 5 5 5 6 6 7 7 7 7 7 8
Height
732 741 743 741 737 730 727 725 723 721 718 715 711 712 712 713 712 702 695 684 681 699 708 707 711 711 710 706 697 690 689 698 703 706 706 704 707 710 716 728 740 745 738 731 734 738 740 743 747 752 756 762 767 770 773 776 780 785 788 790 791 791 792 792 791 790 791 794 797 801 803 805 806 807 808 810 811 812 814 815 816 816 817 817 818 820
731 743 740 730 727 723 720 720 720 720 718 716 715 716 710 706 706 697 690 683 680 698 706 703 709 709 705 703 697 691 695 702 704 707 708 705 707 709 716 727 734 738 736 732 735 737 740 744 750 757 760 765 770 772 774 778 784 790 793 796 799 801 802 800 798 796 794 797 800 802 803 805 805 807 808 810 812 813 814 815 816 817 817 818 818 819
737 740 731 721 719 717 717 715 718 721 720 720 718 721 714 701 699 696 687 681 682 698 706 702 708 709 702 699 696 692 694 697 698 702 705 704 705 708 716 726 731 735 735 734 738 739 742 748 754 760 762 764 767 769 773 777 782 789 791 794 799 803 804 805 805 805 802 802 804 803 803 804 805 806 808 810 812 813 814 815 817 817 818 818 818 819
741 732 721 717 714 716 718 713 714 720 721 722 720 724 720 701 700 704 693 684 683 694 705 703 706 708 703 700 697 693 692 690 691 697 700 700 702 704 711 721 727 731 731 733 738 743 748 753 757 761 763 765 766 769 773 775 779 784 787 789 792 796 798 799 801 802 801 801 803 803 803 805 806 808 809 811 812 813 814 815 816 817 818 818 818 819
729 717 710 712 712 714 718 713 712 720 725 724 721 723 718 705 701 700 693 689 690 699 706 709 717 714 705 706 702 693 692 691 689 693 699 700 699 701 709 718 724 727 732 739 742 748 755 757 761 763 764 766 767 770 773 775 778 781 784 788 790 792 794 795 795 795 798 800 801 803 805 806 807 808 810 811 812 813 814 815 816 817 818 819 820 820
717 707 703 709 710 708 714 718 718 725 731 727 721 718 714 708 702 695 692 698 711 719 711 715 739 733 708 706 703 693 696 698 691 691 699 702 698 701 711 719 724 727 737 749 750 754 760 760 764 766 764 765 768 770 772 774 776 778 782 786 788 789 791 793 793 792 796 800 801 803 805 806 807 808 809 810 812 812 814 815 816 817 818 819 820 821
709 702 700 704 706 705 711 720 719 722 733 731 717 711 711 710 706 702 699 704 721 728 712 712 741 744 718 707 702 695 700 701 693 694 699 700 699 703 712 719 725 729 740 753 755 755 759 761 764 766 765 767 769 770 773 775 776 776 780 783 785 788 788 789 790 791 794 798 801 802 803 805 806 807 809 810 811 812 813 815 816 817 818 819 820 821
706 705 705 702 705 711 717 722 716 715 730 730 709 703 709 709 709 709 704 704 712 720 716 711 725 739 729 711 699 697 703 701 696 699 700 699 703 707 713 720 724 732 745 755 756 753 753 758 764 767 767 769 770 772 775 776 777 776 778 781 783 786 787 787 789 790 792 796 798 800 802 803 805 806 808 809 810 811 813 814 815 816 818 819 820 821
702 707 710 706 710 716 718 717 710 710 722 719 702 698 701 704 707 706 704 704 706 721 732 719 716 737 736 709 694 695 701 702 699 700 699 700 707 710 714 721 727 739 751 753 752 751 752 758 764 765 766 769 771 773 775 776 777 777 778 780 782 784 785 786 788 789 791 794 796 799 800 802 803 805 807 808 810 811 812 814 815 815 817 819 820 821
700 701 703 706 713 715 712 708 703 706 713 708 701 700 697 698 702 703 707 707 711 732 743 725 715 734 738 712 698 701 703 703 700 698 696 697 706 712 713 720 731 746 755 752 750 750 754 760 764 765 768 770 772 772 773 775 776 778 779 781 783 784 784 785 787 788 790 792 795 797 799 800 801 803 805 808 809 810 812 813 814 815 817 818 819 820
697 693 695 702 707 707 704 701 698 699 702 700 700 702 699 697 699 706 708 707 723 742 737 721 713 728 743 723 702 703 702 698 697 697 696 697 706 714 715 720 733 744 750 752 753 752 756 761 762 764 768 769 770 771 772 774 776 778 781 783 783 783 784 786 787 788 789 792 794 796 798 798 800 802 804 806 808 810 811 812 813 815 816 818 819 820
700 697 699 699 698 698 701 700 694 689 693 699 701 705 711 709 708 716 717 716 737 745 724 710 705 719 742 730 705 700 696 695 697 696 694 696 704 712 715 720 732 741 746 752 758 758 759 761 759 761 767 770 772 772 773 774 775 776 778 779 780 781 782 784 785 786 788 791 793 795 796 798 800 802 804 806 808 809 810 812 813 814 816 818 819 820
705 700 698 700 697 695 702 705 698 691 695 703 705 713 728 729 728 735 733 730 739 735 713 702 705 719 732 721 705 701 697 697 700 697 694 694 702 711 715 724 735 742 747 752 758 760 759 759 758 759 766 771 774 775 773 773 773 774 774 773 774 777 779 781 782 784 786 789 791 793 795 797 800 802 804 805 807 809 810 811 812 814 816 818 819 820
714 705 697 701 701 694 699 706 708 706 705 709 709 716 731 737 744 750 742 737 738 728 708 698 709 727 728 712 702 702 702 702 701 703 705 703 706 712 717 729 740 745 749 751 752 754 756 757 757 758 764 768 770 772 771 771 772 774 775 774 774 776 778 780 781 783 786 788 790 792 794 796 799 802 804 805 807 808 810 811 813 814 816 817 819 820
722 719 702 700 700 695 697 699 700 700 702 706 702 706 720 727 739 747 742 740 739 726 710 704 717 733 731 715 703 701 702 702 703 707 710 711 711 713 719 733 744 748 751 750 746 747 753 757 758 758 763 766 766 768 769 770 772 774 776 778 778 779 779 780 781 783 786 788 790 793 794 796 799 802 803 805 806 808 809 811 813 815 816 817 818 819
717 715 693 689 690 689 696 693 687 693 702 701 695 703 716 713 718 732 736 732 732 731 723 718 725 726 721 713 702 702 703 701 707 709 710 715 714 713 720 733 745 750 750 750 748 749 754 759 760 760 763 765 765 767 768 769 771 774 776 778 779 780 780 780 781 783 786 788 790 793 795 797 800 802 803 804 806 807 809 811 813 814 816 817 818 819
717 709 685 683 687 683 690 691 685 694 705 703 700 706 704 695 704 728 735 724 728 742 736 731 736 728 720 719 707 704 708 707 710 712 716 722 720 719 724 732 746 751 749 750 751 753 758 760 760 760 763 766 765 766 767 768 771 773 776 779 780 781 781 781 782 784 787 788 791 793 795 797 799 801 803 804 806 808 809 811 813 814 815 816 817 819
712 712 690 685 691 683 680 686 684 684 692 702 706 701 691 689 700 718 733 733 737 747 737 731 740 734 730 731 714 706 716 718 717 718 725 730 730 732 734 736 746 750 751 754 754 755 757 758 758 759 762 767 767 766 767 768 771 774 777 780 781 782 782 782 784 785 787 789 791 794 795 797 799 801 803 804 806 808 810 811 812 813 815 816 817 818
707 718 704 687 689 683 675 685 693 684 681 689 696 693 694 709 716 716 729 740 743 749 739 724 730 737 736 731 718 715 722 724 723 726 733 737 739 743 744 743 746 749 753 756 757 757 755 756 760 762 765 768 770 770 769 769 772 774 777 780 782 784 784 784 786 787 788 790 792 794 795 797 799 801 803 805 807 808 809 811 812 813 815 816 817 818
703 720 719 696 682 682 683 691 701 697 685 683 688 690 693 707 717 718 723 728 733 747 744 727 735 750 744 730 725 724 723 726 731 735 740 745 746 747 748 748 749 752 755 756 758 761 760 762 767 769 770 769 769 770 769 770 773 774 776 778 781 784 785 786 787 788 789 791 792 794 796 798 800 802 804 805 807 808 809 811 812 813 815 816 817 818
701 715 726 709 685 687 696 695 698 700 694 694 700 702 700 700 707 716 719 713 717 737 740 733 749 760 744 729 729 727 725 730 739 747 750 753 754 754 751 751 752 755 759 761 764 767 767 767 768 768 767 765 764 767 767 769 772 773 774 776 778 781 784 785 787 788 790 792 793 795 797 799 801 803 804 806 807 808 809 811 812 813 815 816 817 818
702 711 725 720 702 701 699 686 685 690 690 695 700 701 703 702 706 723 730 716 710 723 728 735 759 763 744 732 730 729 731 735 742 750 753 754 758 760 758 758 759 759 762 765 763 762 762 760 758 758 759 760 762 765 766 768 772 773 774 776 778 780 783 785 787 788 791 793 794 796 798 800 802 803 805 806 807 808 809 811 812 813 815 816 817 818
699 705 718 721 710 705 697 683 682 686 685 688 691 691 694 698 705 723 734 722 714 719 719 732 759 763 746 735 733 734 736 739 745 747 746 749 753 756 758 760 762 762 764 763 756 753 754 753 753 755 757 760 762 764 766 768 771 773 774 776 778 781 783 785 787 789 791 793 795 797 798 800 802 804 805 806 807 809 810 811 812 813 814 815 817 818
701 707 721 727 717 707 699 689 685 683 683 689 691 689 692 696 699 707 714 713 718 725 724 737 761 765 749 737 738 743 741 744 750 749 747 750 752 753 756 757 758 759 760 758 753 752 754 754 755 757 759 761 762 765 767 769 771 773 775 777 779 781 784 786 788 790 792 794 795 797 799 801 803 805 806 806 808 809 810 811 812 813 814 815 816 817
713 717 726 738 740 732 721 712 705 698 694 695 694 692 693 694 695 700 705 710 721 726 723 737 762 765 749 738 742 748 747 748 754 755 754 755 755 757 759 759 759 758 757 757 756 756 757 758 759 761 762 763 764 766 769 771 773 775 776 779 780 782 784 785 788 790 792 794 795 797 799 802 804 805 806 807 808 809 811 812 812 813 814 815 816 817
720 722 724 736 747 748 744 739 734 725 715 706 699 694 694 694 698 708 716 723 731 727 722 738 760 761 747 740 744 749 750 752 754 756 757 758 759 762 764 764 763 760 760 760 760 761 761 762 764 766 767 767 768 770 772 774 776 777 779 780 781 783 784 785 788 790 791 793 795 798 800 802 804 805 806 807 809 810 811 812 813 813 814 815 816 818
718 722 724 730 734 737 742 737 728 727 726 717 708 705 704 699 698 708 720 730 734 737 741 747 752 755 751 746 749 752 754 757 758 758 760 762 764 766 767 768 767 764 764 763 763 764 764 765 768 770 771 771 772 774 775 777 779 781 783 783 784 785 785 786 788 789 791 794 796 798 800 802 804 805 806 808 809 810 811 812 813 814 814 815 816 818
721 726 727 730 728 727 734 731 724 727 729 721 713 716 716 709 706 713 723 726 723 736 756 753 743 752 756 749 751 755 755 759 760 762 764 765 767 769 769 771 770 769 768 767 767 767 767 768 769 771 773 775 776 778 779 781 782 784 787 790 789 788 786 787 788 789 792 794 796 798 800 802 804 805 806 808 809 811 812 812 813 814 815 816 816 818
723 728 725 729 730 725 727 729 727 731 732 725 718 718 718 718 722 725 727 725 720 730 751 752 745 752 755 751 755 757 757 760 762 763 765 765 768 771 773 774 775 775 775 774 773 773 773 773 772 772 775 777 779 781 783 785 786 787 791 795 796 795 791 790 790 790 792 794 796 798 800 802 804 805 807 808 809 811 811 812 813 814 815 816 817 818
720 727 722 723 728 725 725 728 727 730 735 732 724 721 720 724 732 735 734 732 730 733 742 747 751 755 755 755 759 758 759 762 762 763 764 766 771 774 777 779 781 781 781 780 780 779 779 778 776 776 777 778 781 783 785 787 789 790 793 797 799 799 796 794 795 795 795 795 797 799 800 802 804 805 807 808 809 811 811 812 813 814 815 816 817 818
719 725 720 720 727 726 722 725 727 730 736 738 734 729 727 730 737 744 744 740 741 746 749 752 761 765 761 759 760 760 760 761 763 766 767 770 774 778 782 784 785 786 787 787 787 786 785 784 783 782 782 783 785 786 786 789 790 792 794 795 797 798 797 797 799 801 801 799 799 800 801 803 804 806 807 808 809 810 811 812 813 814 815 816 817 818
724 726 722 725 735 734 723 723 728 729 733 741 741 737 735 737 744 749 748 744 747 756 761 763 769 773 768 764 764 765 764 764 767 770 772 776 780 783 788 791 791 792 792 793 793 793 793 792 791 791 790 790 791 790 791 791 792 793 794 794 795 796 797 799 801 803 804 803 802 802 803 805 806 807 808 809 810 811 811 812 813 814 815 816 817 818
733 732 729 732 740 738 727 724 727 732 740 748 746 740 738 739 744 750 750 745 745 752 760 764 768 770 769 767 768 768 766 766 770 774 779 784 788 791 794 796 798 799 799 800 800 800 800 800 800 800 800 798 798 797 796 796 796 797 797 796 796 796 797 800 802 803 804 804 805 805 805 806 807 808 809 809 810 810 811 811 812 813 814 814 815 817
742 736 736 742 746 742 735 733 735 741 752 757 750 740 736 735 742 751 752 748 746 749 753 757 761 765 768 769 770 771 772 773 777 782 786 790 794 798 800 801 803 804 804 805 806 806 807 807 807 807 807 806 805 804 802 802 801 801 800 799 799 799 800 802 804 805 805 806 806 807 807 808 808 809 810 810 810 811 812 813 813 814 814 814 815 816
747 737 737 746 749 747 746 750 757 760 760 759 752 743 737 739 745 753 755 751 749 751 753 757 761 764 767 770 772 776 780 782 785 789 791 794 797 800 802 805 806 807 809 810 810 811 812 812 812 812 811 812 811 809 808 807 806 805 805 805 804 803 803 805 806 807 808 809 809 809 809 809 810 811 812 812 813 814 815 815 815 816 816 816 816 816
737 737 737 742 748 752 751 754 765 770 763 758 756 750 747 748 750 756 762 760 754 755 757 759 762 763 766 772 776 780 783 786 789 794 795 796 799 800 803 806 808 811 813 814 814 815 815 816 816 816 816 816 815 814 813 812 811 810 809 810 810 809 808 809 810 811 812 812 812 812 812 812 812 813 813 814 814 814 815 815 815 815 815 815 815 815
726 735 740 745 755 760 756 756 766 771 767 764 763 760 757 758 757 758 765 766 759 755 758 760 762 765 769 774 779 783 786 790 796 800 800 800 802 803 806 808 809 812 814 816 817 817 817 818 818 818 818 818 817 817 817 816 816 814 813 813 814 813 813 813 813 813 814 814 814 814 814 814 814 814 815 815 815 815 814 814 814 814 814 814 814 813
722 730 737 745 755 757 755 760 767 771 775 776 774 768 761 760 759 755 760 768 763 756 760 765 769 773 775 779 784 787 790 796 802 804 803 803 805 806 808 810 811 812 814 815 817 817 818 819 819 819 820 819 819 819 818 818 818 817 816 816 816 816 816 815 815 815 815 815 816 816 816 815 815 815 815 816 816 816 814 813 813 812 812 812 812 812
723 726 730 738 747 749 751 758 763 770 781 783 779 775 768 763 760 757 765 774 769 761 765 771 776 780 783 785 789 790 791 799 807 807 805 805 807 808 809 810 811 812 813 815 817 817 817 818 819 820 820 820 820 820 819 819 818 818 817 817 817 818 817 816 817 816 816 816 816 816 816 816 816 816 816 817 817 816 815 814 813 812 811 811 811 810
735 731 732 738 744 744 746 756 767 777 784 781 776 776 774 768 764 766 775 779 770 763 767 773 778 784 787 788 791 790 789 795 803 806 805 807 809 810 810 811 812 812 814 815 816 817 817 818 819 820 820 820 820 820 820 820 819 819 818 818 818 818 817 817 817 817 817 817 817 817 817 817 817 817 817 817 816 816 815 814 813 812 811 811 810 809
745 740 738 740 743 742 745 759 776 782 783 780 775 772 770 769 771 776 779 776 768 766 770 772 776 782 786 789 792 792 791 794 798 803 806 807 809 811 811 813 813 814 815 816 816 816 817 818 819 819 819 820 821 821 821 821 820 820 819 818 819 819 819 819 819 819 819 819 819 819 819 818 818 817 817 817 816 815 814 814 813 812 811 810 809 808
751 750 745 746 750 748 746 759 777 786 785 781 776 770 765 770 780 782 776 770 768 770 773 776 781 786 788 791 794 795 797 798 800 803 806 807 810 811 812 813 814 815 816 816 817 817 817 818 819 820 820 821 821 821 821 820 820 820 820 820 820 820 820 820 820 820 820 820 820 820 819 818 818 817 817 816 815 814 813 813 812 811 810 809 808 806
755 757 754 758 761 755 752 765 783 791 786 778 774 772 770 773 780 779 774 773 774 775 778 784 789 791 792 794 796 798 800 802 804 807 808 810 811 813 814 815 815 816 816 817 818 819 819 819 820 821 822 822 822 822 821 821 821 820 820 821 821 821 821 821 820 820 820 820 820 819 818 818 817 817 816 815 814 814 812 811 810 809 808 807 805 804
759 760 761 766 766 762 768 782 788 787 783 777 776 778 778 776 774 773 776 780 780 779 783 788 791 793 794 796 799 801 803 805 808 809 811 812 813 814 815 816 816 817 817 817 819 820 819 820 820 821 822 822 822 822 822 822 822 822 822 822 822 822 822 821 821 821 820 820 820 819 818 818 817 816 815 814 813 812 810 809 809 807 806 805 803 802
764 764 764 768 770 769 776 783 783 781 780 779 778 779 779 779 777 778 783 787 785 785 788 792 795 798 798 799 802 804 806 808 810 812 813 814 814 815 815 816 817 818 818 818 819 820 820 820 820 821 821 821 822 822 822 822 823 823 822 822 822 822 822 822 822 821 821 821 820 819 819 818 816 816 815 813 813 811 809 808 807 805 804 803 801 800
764 762 762 767 772 775 778 780 780 781 783 783 783 782 782 783 784 786 790 794 794 795 797 799 803 803 802 802 804 806 808 810 812 814 815 815 816 816 816 818 819 819 819 820 820 821 821 820 820 821 821 822 822 822 821 821 822 822 821 821 822 822 822 822 821 821 821 820 819 819 818 817 815 815 813 812 811 810 808 807 806 804 803 801 800 799
764 763 763 769 774 780 784 785 784 785 788 789 789 789 789 789 791 793 796 798 800 801 802 804 806 807 808 809 809 810 812 813 813 815 815 815 816 817 817 819 819 820 820 821 821 822 822 821 821 821 821 822 821 821 821 821 821 821 821 821 821 822 821 821 821 820 820 819 819 818 817 815 814 813 812 811 810 808 807 806 805 804 802 800 799 797
767 765 766 770 775 780 784 785 785 787 790 789 790 793 794 795 797 798 799 801 803 804 805 807 808 809 811 812 813 815 817 817 818 817 816 816 817 817 818 820 820 820 821 821 822 823 822 821 822 822 821 821 821 821 821 822 822 822 822 822 822 822 821 821 821 820 820 819 818 817 816 815 814 812 811 810 808 807 805 804 803 802 800 799 798 796
768 768 768 772 781 786 786 786 787 790 791 791 792 795 796 797 799 801 802 804 805 806 807 809 810 811 812 813 814 815 816 818 820 820 819 818 818 819 820 821 821 822 822 822 823 823 822 822 822 822 821 821 821 822 823 823 823 823 822 822 822 822 821 821 821 820 820 819 818 817 816 815 813 812 811 809 807 806 804 803 802 800 798 797 796 796
772 776 774 775 783 789 789 789 790 792 795 797 796 796 798 799 800 802 803 804 806 807 809 809 810 811 812 813 813 814 816 818 820 820 820 819 819 821 822 822 822 822 822 822 822 822 821 822 822 822 822 822 822 823 823 823 823 823 822 822 822 821 821 821 820 820 819 818 817 816 815 814 813 812 810 809 807 805 803 801 800 799 797 795 794 793
778 781 780 781 785 789 790 791 790 791 796 798 796 796 798 798 799 801 803 804 806 807 808 809 810 811 812 813 814 815 817 818 820 820 820 820 820 821 822 823 823 823 822 822 822 821 821 822 822 822 822 822 822 823 823 823 822 822 822 822 821 821 821 820 819 819 818 817 816 815 814 813 812 811 809 808 806 804 802 800 798 797 796 794 792 790
Wind_Speed
9 7 8 10 11 12 14 15 15 16 18 18 13 11 13 12 11 13 16 14 16 14 13 15 15 16 15 17 17 7 9 8 10 10 10 8 8 9 8 12 7 11 10 11 16 17 15 13 12 9 11 21 23 17 12 11 11 17 18 13 13 14 15 19 20 21 20 17 17 15 12 11 11 11 10 9 8 8 8 7 6 6 7 8 8 9
9 9 10 13 14 15 15 15 15 16 18 17 13 13 13 12 11 14 16 14 13 10 10 14 15 15 14 14 16 12 12 13 12 10 11 11 10 9 7 11 6 8 7 9 12 13 13 13 14 20 28 25 16 10 10 8 8 11 11 9 11 13 16 16 15 20 23 20 17 16 13 12 12 11 11 9 7 7 8 8 7 6 5 6 9 9
9 10 12 15 14 14 15 14 14 16 16 13 11 11 11 9 10 12 14 15 11 8 7 13 13 13 13 14 14 13 12 13 13 12 12 12 11 11 11 11 9 10 9 9 10 11 11 13 19 27 30 23 16 11 11 11 10 10 12 11 10 13 21 19 11 15 23 23 17 13 15 17 15 13 12 10 8 8 9 8 8 8 6 5 7 8
8 10 15 16 14 13 15 15 15 13 11 10 9 8 9 9 9 9 11 15 10 6 4 9 9 9 12 13 13 14 13 10 13 15 14 12 11 11 11 11 10 9 8 8 11 8 12 19 17 19 24 23 19 16 14 14 13 10 12 13 12 15 21 19 14 14 17 21 18 18 20 18 15 14 12 11 9 7 8 9 9 8 7 7 7 8
11 12 14 15 16 16 15 13 11 8 7 9 11 11 9 10 11 10 6 6 5 7 4 8 7 7 10 12 14 12 11 12 12 16 14 12 12 9 11 11 8 5 1 4 9 11 13 12 12 16 22 24 21 19 17 16 17 15 15 16 16 16 15 15 19 20 18 18 20 19 19 17 15 13 12 12 9 6 8 9 9 8 8 9 7 8
13 12 11 15 18 19 14 8 8 7 7 9 12 15 15 15 16 12 5 7 4 5 8 7 7 7 9 13 14 10 9 14 14 12 13 13 15 9 13 12 9 7 5 9 13 13 8 7 11 16 22 25 22 21 20 20 21 21 20 20 18 16 14 15 19 21 16 14 17 17 16 16 15 13 13 12 8 8 9 9 9 9 8 8 8 8
10 10 11 14 15 13 11 8 11 12 8 8 10 15 18 20 19 16 11 8 5 5 6 8 8 7 8 12 12 9 11 16 13 10 13 14 12 8 12 11 11 9 9 14 14 12 9 8 10 13 16 19 20 21 21 23 24 25 24 23 19 16 17 18 18 19 17 15 15 14 13 14 15 15 14 11 10 11 10 9 8 7 7 8 8 8
9 11 10 10 9 7 8 8 12 13 10 8 10 15 18 20 19 17 17 10 6 5 5 8 10 8 7 10 13 14 15 18 15 12 15 12 5 12 14 11 10 10 12 14 11 10 10 9 9 12 13 13 17 19 20 22 24 25 24 23 21 20 20 21 19 19 19 16 15 13 13 15 16 16 14 11 11 11 10 8 6 6 8 8 8 8
9 11 9 9 9 7 8 10 12 14 11 11 14 14 13 15 17 16 14 7 6 6 6 9 11 8 7 8 11 14 15 16 15 14 16 11 10 14 14 12 11 12 13 12 9 9 10 9 10 15 15 13 16 19 22 24 25 26 26 26 25 24 24 22 20 19 18 17 15 14 14 16 15 15 14 12 11 10 10 8 7 8 9 7 7 8
8 10 9 9 9 8 11 13 14 14 11 12 16 15 13 13 14 12 9 6 5 5 7 9 9 7 6 6 7 8 10 12 12 12 13 11 13 14 12 13 15 15 12 10 9 10 11 12 14 17 17 16 17 21 25 26 27 27 26 26 27 25 24 22 20 20 19 18 16 14 15 16 16 14 14 14 11 10 9 7 7 7 7 6 6 7
8 10 9 8 9 10 13 13 15 17 13 13 15 14 13 12 10 8 8 7 6 6 10 12 11 8 6 5 6 6 7 8 9 10 11 10 14 16 13 14 17 16 13 10 9 9 12 15 19 21 19 18 20 24 26 26 28 29 26 24 25 24 23 21 20 22 21 19 18 16 15 16 15 14 14 13 11 10 9 8 7 6 6 7 7 6
12 11 8 7 9 11 12 12 14 15 13 10 10 7 7 6 7 7 7 8 7 7 10 14 14 11 7 4 3 3 4 1 4 5 12 14 15 16 12 12 16 16 15 14 11 11 12 13 17 20 17 17 19 21 24 26 28 30 30 29 28 26 25 24 23 24 22 20 20 17 15 15 15 14 13 13 11 9 9 8 7 7 7 7 6 5
12 10 8 8 11 13 12 9 8 8 8 8 7 6 7 6 6 7 7 8 7 7 9 11 12 9 4 4 2 3 2 8 12 9 3 7 12 14 12 14 16 14 14 14 13 12 12 10 13 17 17 16 16 18 22 28 29 31 33 35 34 31 29 27 24 24 23 22 21 18 16 16 15 13 12 12 11 9 9 8 7 7 6 6 6 6
8 10 12 12 10 12 13 9 6 6 7 10 8 7 8 6 6 6 6 7 6 8 10 9 8 5 4 6 4 4 8 10 13 14 12 9 9 11 15 17 15 14 12 10 10 10 8 9 13 18 20 20 21 23 25 28 29 28 28 31 32 30 29 27 25 23 22 22 21 20 19 18 16 14 13 13 11 9 9 9 7 7 7 7 7 7
9 8 11 12 9 11 14 12 9 7 8 11 9 9 8 6 6 5 5 6 6 7 9 8 5 2 3 5 6 7 5 7 10 12 10 8 7 8 14 18 15 11 10 7 7 9 8 10 15 19 22 24 25 26 25 23 23 21 20 22 25 26 26 27 26 24 22 21 20 19 19 17 16 15 14 13 12 10 10 9 7 7 8 9 9 8
10 8 10 14 12 13 15 14 12 9 7 8 9 9 7 5 5 3 2 3 2 3 5 5 2 3 4 3 4 5 5 5 7 7 7 8 7 8 12 17 14 10 11 8 7 11 11 11 15 17 19 21 23 22 20 19 19 19 18 19 22 23 24 26 26 24 23 22 20 19 18 16 15 14 13 14 14 12 11 10 9 9 9 10 10 9
8 7 7 14 15 14 15 14 13 11 6 4 8 9 7 8 6 3 3 2 1 3 3 1 3 4 6 3 3 7 6 6 4 5 10 13 12 9 9 14 15 13 13 11 9 11 11 10 13 15 14 16 19 18 17 16 18 20 18 16 19 22 21 23 24 23 22 22 20 18 17 16 15 14 13 15 15 13 12 11 10 11 11 11 10 10
5 6 5 9 15 15 14 14 14 13 9 5 5 5 7 9 8 3 3 3 3 5 4 5 6 5 5 4 7 10 9 8 5 7 13 14 13 11 9 11 15 13 11 11 10 9 9 9 9 11 13 16 15 12 14 15 15 17 16 13 16 20 20 20 22 22 21 21 19 17 17 17 16 14 14 15 16 14 13 13 12 12 12 11 10 10
4 5 6 10 12 14 12 12 12 13 14 10 4 2 5 6 6 4 3 4 5 5 5 8 9 3 1 2 6 9 10 10 8 7 11 11 10 9 8 8 10 11 8 7 7 5 6 6 4 7 14 17 14 11 11 14 12 12 13 11 12 15 16 18 19 19 19 18 17 16 16 17 15 14 15 16 16 15 14 14 13 12 11 10 10 10
3 4 4 11 11 11 9 8 7 8 12 11 6 5 5 2 2 3 2 4 5 4 5 8 7 3 4 3 5 8 10 10 9 8 9 10 8 6 4 5 8 9 7 5 4 2 4 7 10 16 20 21 22 19 14 14 12 12 14 13 13 12 13 14 15 16 16 15 15 15 15 15 14 14 16 16 15 15 14 14 14 12 11 10 9 9
3 4 2 7 10 9 7 7 8 7 8 8 6 6 6 3 3 2 2 5 5 3 4 5 3 3 3 5 7 9 9 11 11 10 9 8 6 3 3 5 6 6 4 4 7 7 7 12 18 23 23 20 21 19 15 14 12 12 13 12 13 12 11 11 10 11 12 12 13 13 13 14 14 14 15 15 15 15 14 15 14 13 11 10 9 9
3 4 3 5 6 6 6 7 10 10 9 7 7 7 7 5 4 4 4 5 5 4 3 2 3 4 2 5 5 7 8 11 12 10 9 11 12 8 3 2 3 3 1 4 9 12 10 11 15 18 18 17 18 16 14 13 11 11 12 10 10 10 9 9 8 10 11 11 11 12 12 13 13 14 15 16 16 15 15 15 14 13 13 11 10 10
1 2 5 6 5 6 10 7 6 10 12 11 9 7 7 6 5 5 5 4 4 4 3 1 4 4 2 5 5 8 10 11 10 8 9 11 12 10 8 7 7 7 5 4 4 8 9 10 13 15 16 16 15 14 13 12 11 11 11 9 9 9 9 9 8 9 10 10 11 12 13 13 13 14 16 17 16 15 15 15 14 13 13 11 9 10
2 2 4 4 3 7 12 11 10 10 10 11 9 7 7 7 8 7 5 3 2 3 3 1 3 3 1 3 5 10 12 13 8 5 9 11 9 10 10 9 7 8 8 5 6 9 9 11 13 12 13 14 14 14 13 11 11 11 10 9 10 9 9 9 9 9 10 11 12 12 12 12 12 13 15 16 16 15 14 13 13 12 11 11 10 10
2 2 2 3 2 4 7 6 7 8 7 5 6 7 8 9 7 5 3 3 3 4 6 4 2 4 1 1 7 11 12 14 10 6 9 10 9 10 9 8 7 7 8 9 10 10 11 11 11 10 11 14 14 12 11 10 10 10 9 8 9 9 9 9 8 9 10 11 11 11 12 12 12 13 15 14 14 14 12 12 12 11 11 11 11 10
1 2 2 2 4 5 4 2 2 4 6 6 7 9 10 11 8 3 2 2 3 5 6 2 4 5 4 7 10 11 11 13 12 11 11 10 11 11 9 8 7 7 10 12 12 11 10 11 11 9 10 12 13 11 10 9 8 7 8 8 8 8 9 9 9 10 11 11 11 11 12 13 13 13 13 13 13 13 12 11 11 12 12 12 11 11
0 1 1 2 0 2 0 1 0 4 7 8 7 8 10 9 9 4 3 2 1 1 2 1 8 9 8 10 12 10 11 11 11 12 12 11 11 10 10 10 8 8 10 12 11 11 10 12 13 12 11 13 14 12 11 11 10 10 8 5 6 8 11 11 11 12 13 13 13 13 13 13 13 12 11 10 11 12 10 9 9 10 11 11 11 12
1 2 4 2 0 4 3 2 4 6 10 10 6 7 13 10 3 2 4 5 4 1 1 1 10 13 9 10 11 11 11 10 11 12 11 10 11 11 11 12 11 11 12 12 12 12 12 12 12 14 16 16 15 14 14 14 15 14 9 5 3 3 8 11 13 14 14 15 15 14 14 13 12 11 11 10 10 11 10 8 8 9 10 10 11 12
3 4 5 4 5 4 4 2 2 4 10 13 8 5 8 9 10 8 4 7 8 1 5 6 11 14 11 10 10 10 11 11 10 11 10 11 13 13 13 14 14 14 14 15 15 15 15 12 9 11 16 16 16 16 15 14 15 15 9 3 6 6 5 5 8 10 12 14 13 12 12 12 10 9 10 10 9 9 9 8 8 9 10 10 10 11
3 4 6 7 8 8 8 7 5 4 8 12 10 7 7 8 11 11 10 10 8 7 11 12 13 13 10 10 10 10 11 11 9 9 11 13 14 14 13 14 14 15 15 16 16 15 15 15 14 14 16 16 15 15 14 13 13 12 12 10 5 3 5 7 6 5 7 9 10 9 9 9 8 8 8 8 7 7 7 7 8 9 10 10 10 10
4 3 4 6 7 7 8 8 9 9 8 10 11 9 7 6 9 8 9 10 11 10 12 14 14 10 7 8 9 8 8 9 10 10 11 13 14 13 13 13 13 15 15 15 15 15 16 16 17 19 21 21 20 17 13 12 13 10 9 12 11 7 6 7 7 6 5 4 6 8 8 7 7 7 6 5 5 5 6 6 7 8 7 8 8 9
2 1 3 4 4 5 6 6 7 8 9 9 10 10 8 5 6 6 4 5 8 10 12 12 9 7 6 7 8 7 8 10 12 12 10 11 13 13 13 13 13 14 14 14 14 15 15 15 16 18 19 20 21 22 21 18 16 14 11 9 10 10 9 10 8 5 2 2 4 7 7 7 6 5 5 6 6 6 6 7 8 9 9 9 9 9
3 3 1 2 3 4 4 4 4 5 6 6 5 6 7 4 4 7 5 7 8 8 6 5 6 9 9 8 9 9 9 10 11 11 10 11 13 13 13 13 13 13 14 14 14 14 14 15 16 18 19 20 20 20 22 23 20 18 18 16 11 8 10 11 10 8 7 6 7 6 5 6 6 4 2 3 3 3 4 5 7 9 10 10 10 11
5 5 1 1 3 4 1 3 3 6 4 2 4 6 4 3 6 7 7 8 8 7 6 8 10 12 11 9 10 11 9 9 11 11 11 10 10 11 12 12 12 12 12 13 13 13 14 15 17 19 19 20 20 20 21 23 24 23 22 23 21 14 10 12 13 13 14 13 12 11 9 8 6 5 4 2 1 1 3 6 7 9 11 11 12 14
5 5 1 2 1 2 3 5 2 5 1 3 5 8 9 10 12 11 9 9 10 12 13 14 13 13 13 11 11 12 12 12 11 11 10 10 9 10 11 11 11 12 12 11 11 12 14 15 16 18 19 19 19 19 19 21 22 22 22 23 25 23 17 15 15 16 18 18 17 17 15 13 10 7 4 2 1 2 5 7 8 9 10 11 12 14
5 2 0 2 1 1 1 1 2 2 2 3 4 7 8 9 10 9 7 7 8 10 12 14 15 15 15 14 12 12 12 12 11 9 9 11 11 11 10 10 11 11 10 10 12 12 12 13 13 14 16 17 18 18 19 21 21 20 19 20 21 23 21 18 17 17 18 18 18 18 17 17 16 14 12 9 5 3 4 6 7 7 8 9 10 11
2 3 1 2 2 1 3 1 1 1 2 2 4 7 6 4 4 4 3 5 5 6 9 11 14 16 16 16 15 13 13 12 9 8 9 11 11 12 12 11 11 12 12 11 12 13 12 10 10 12 14 16 18 18 17 18 19 18 17 17 17 18 18 17 16 16 17 16 17 17 16 16 15 15 15 14 13 12 10 7 5 5 6 8 9 10
1 2 2 2 3 3 3 2 1 1 1 2 6 10 9 7 8 8 2 6 5 6 9 11 13 15 15 15 15 13 11 9 7 6 8 10 10 11 12 12 13 13 12 12 11 10 10 8 8 9 11 12 14 14 13 13 15 14 14 14 14 13 12 13 14 14 15 14 14 14 14 14 14 14 13 14 14 15 15 14 11 9 8 8 9 11
3 2 3 3 3 3 4 3 2 2 2 3 6 10 11 11 10 7 1 4 4 8 12 12 12 12 12 12 12 9 6 5 5 5 6 9 10 9 9 11 12 12 12 11 9 7 7 7 7 8 9 8 9 10 9 9 10 10 10 11 11 10 9 11 12 13 13 13 13 14 14 13 13 13 12 12 13 13 14 14 14 14 13 12 12 12
3 2 2 4 4 4 5 3 1 3 3 5 7 6 8 11 10 6 3 3 4 8 11 12 12 12 10 10 9 4 1 3 6 8 8 9 10 9 8 10 11 11 12 11 9 7 7 7 8 8 7 6 8 8 7 7 7 7 7 8 8 9 10 12 13 13 13 13 13 14 14 13 12 13 13 13 14 14 14 14 15 16 16 16 16 15
4 3 3 4 3 4 4 1 2 3 2 6 8 6 6 7 6 2 2 3 5 8 9 9 10 11 9 8 5 3 6 8 10 11 11 10 10 9 9 10 10 10 10 10 9 8 7 7 7 7 6 6 6 6 6 7 7 7 8 8 8 9 11 12 12 12 12 12 12 12 12 12 13 14 15 15 16 17 17 17 17 17 17 17 17 18
4 4 4 5 4 3 3 1 3 3 1 6 8 7 7 4 0 2 3 4 6 9 10 9 9 10 10 9 8 8 10 11 12 11 10 9 9 8 9 9 9 9 9 8 8 8 6 5 7 6 5 5 6 6 7 8 7 8 8 8 8 9 10 11 11 11 11 11 11 12 13 13 14 15 16 17 17 18 20 19 19 19 19 19 20 21
5 4 3 4 4 4 2 2 3 3 3 7 7 5 5 4 4 4 5 7 7 9 11 12 11 10 9 10 11 10 11 11 10 9 9 8 8 8 8 8 7 7 6 6 7 7 5 4 5 4 3 4 5 6 7 7 7 8 8 8 7 9 10 10 10 11 11 12 13 14 14 14 15 16 17 17 17 19 20 20 20 21 21 21 22 22
6 5 3 5 4 4 3 4 3 3 5 7 5 3 5 6 4 5 7 7 6 7 9 9 10 9 9 10 10 9 9 9 8 8 7 7 6 6 7 7 6 6 5 5 6 6 4 3 3 3 3 3 3 3 4 4 4 5 6 6 6 7 8 9 9 10 11 12 13 14 14 15 15 16 17 17 18 20 21 21 21 21 22 22 22 22
6 5 3 4 6 5 5 5 4 4 5 6 5 5 6 8 7 9 11 8 6 7 7 7 9 10 9 9 9 8 8 7 7 6 5 6 5 5 6 6 6 5 4 4 6 5 5 3 3 2 3 3 2 2 2 2 2 3 4 4 5 6 7 8 10 10 11 12 13 14 14 15 16 16 16 16 17 18 20 21 21 21 22 22 22 22
6 4 2 2 6 7 7 7 6 7 8 9 8 7 8 8 8 11 12 9 8 8 8 8 10 11 10 7 7 7 7 6 6 5 4 4 5 4 4 5 5 4 4 4 5 5 5 2 2 3 3 2 1 1 1 1 2 4 5 5 6 9 10 11 12 13 13 14 15 16 16 16 16 17 17 18 17 17 18 19 20 21 22 22 22 23
5 4 3 4 3 2 4 6 7 7 8 8 8 9 10 9 9 10 10 8 8 9 9 9 9 9 10 9 8 8 7 6 5 3 3 3 3 4 5 5 4 4 4 4 5 4 4 2 2 3 2 1 1 2 3 5 5 7 8 9 9 10 11 12 13 14 15 16 17 17 17 18 18 18 18 18 19 19 19 18 18 20 21 21 22 22
4 6 3 5 4 3 5 7 7 7 7 6 6 7 7 8 9 9 8 8 8 8 8 7 7 6 6 6 5 6 5 4 4 4 3 2 2 3 4 4 3 3 3 3 4 4 3 1 2 1 1 2 3 5 6 7 7 9 10 10 11 11 12 13 14 14 15 16 16 16 16 16 17 17 17 17 18 20 20 18 17 18 19 21 21 19
2 5 4 5 6 5 6 7 7 7 7 7 7 7 6 6 8 8 7 7 7 7 7 7 6 5 5 5 4 4 5 5 4 3 2 1 3 4 4 3 3 3 3 3 2 3 2 0 1 2 3 4 5 6 6 7 8 9 10 10 12 13 13 14 14 14 14 14 14 14 14 14 15 15 16 17 18 19 20 20 20 19 20 24 25 25
2 5 5 3 4 4 5 6 5 3 4 6 6 7 8 7 7 7 7 8 7 6 6 7 6 6 7 7 6 5 5 6 5 2 2 2 3 3 3 4 4 3 4 4 3 3 1 1 2 3 3 5 5 6 7 8 9 10 10 12 13 13 14 14 14 14 13 12 12 13 13 14 15 15 16 17 18 19 20 21 21 20 22 25 27 28
5 6 6 4 3 5 6 4 1 2 5 6 5 7 8 7 6 7 6 6 6 5 4 4 3 5 7 7 9 8 6 5 5 3 3 3 3 3 5 6 6 5 5 5 4 3 1 2 3 3 4 5 6 7 8 9 9 11 12 13 13 14 14 14 13 13 13 12 13 14 14 15 15 16 16 16 17 18 19 20 20 20 21 23 25 27
Wind_Direction
206 214 217 221 226 223 223 229 239 241 243 252 259 260 243 233 242 233 243 235 189 186 203 212 223 215 222 240 244 224 145 176 209 204 234 220 192 212 165 125 164 222 209 175 168 167 168 164 154 141 91 73 64 73 123 147 132 132 139 159 159 146 139 128 127 131 128 126 132 145 158 158 151 138 131 129 118 113 111 114 125 146 160 160 157 149
205 221 225 221 227 231 228 225 236 250 252 259 273 279 255 228 237 236 236 232 189 181 204 204 222 223 216 231 240 222 176 186 215 220 233 224 207 209 149 122 183 229 203 177 160 159 166 156 122 85 74 76 82 97 135 126 71 74 90 115 132 139 145 134 132 141 142 144 156 173 172 140 124 125 129 123 113 110 103 102 107 113 129 143 149 155
209 226 231 228 227 233 240 226 224 246 256 260 263 275 273 233 230 240 234 232 200 172 215 210 211 223 223 226 233 234 213 187 192 212 231 227 215 200 159 148 193 216 202 176 152 160 151 108 89 89 93 104 122 136 136 111 78 69 84 103 110 130 147 145 141 153 152 152 154 146 130 119 109 103 108 110 110 112 104 98 97 97 100 112 128 141
212 223 226 232 232 229 241 233 217 227 243 254 256 257 272 257 235 235 230 228 206 146 230 240 220 219 227 232 231 230 236 218 186 196 221 231 222 201 167 153 177 203 200 164 151 138 89 84 92 104 108 111 120 128 128 123 129 128 120 128 134 135 138 133 118 112 117 118 109 101 105 110 106 98 100 102 98 102 105 98 91 87 88 89 96 112
227 227 216 223 231 221 229 244 230 226 236 238 250 249 257 267 251 238 219 195 156 126 175 259 260 235 222 227 231 216 224 245 215 192 204 229 232 192 137 129 145 163 147 107 112 89 78 99 108 106 111 113 120 130 136 139 140 133 127 132 133 125 114 108 108 100 93 100 102 100 103 108 114 115 114 110 104 107 105 98 92 86 85 84 81 93
233 235 217 218 227 218 212 237 235 228 250 237 236 244 254 268 265 253 200 138 152 177 172 207 248 252 233 228 232 205 198 241 236 195 192 224 236 188 128 127 139 138 98 76 88 93 100 114 102 110 122 123 130 142 146 145 139 129 129 135 132 123 113 110 112 107 105 113 113 113 117 124 126 120 115 114 113 109 99 94 91 83 84 87 83 86
237 240 238 227 220 215 207 220 224 218 240 248 226 228 243 259 267 271 254 201 205 233 183 191 224 246 237 228 232 215 209 231 227 199 207 225 227 164 129 132 138 132 97 86 99 117 126 119 113 122 124 125 136 147 147 144 139 133 133 137 138 137 132 125 119 112 114 121 119 121 123 122 116 108 109 109 100 96 94 96 94 90 91 91 89 91
238 235 241 238 209 205 224 227 222 215 224 248 236 218 224 243 255 267 269 242 193 221 224 209 218 239 244 223 218 214 219 227 214 205 221 222 160 118 125 139 140 121 101 104 120 127 124 125 121 109 104 117 133 143 150 145 137 137 140 142 145 148 141 133 128 120 121 127 125 122 116 111 112 113 115 112 102 99 101 96 86 93 97 90 88 91
226 220 211 231 222 209 228 231 222 214 216 241 248 234 217 229 243 252 267 251 187 215 240 220 214 227 249 233 214 212 220 223 211 210 221 201 130 117 133 140 123 100 100 118 127 113 112 116 107 102 108 121 131 144 156 150 144 145 148 149 148 149 145 140 138 131 129 132 128 125 120 115 118 120 119 118 110 104 105 93 69 77 86 83 83 86
220 217 200 216 225 223 228 229 226 215 217 238 246 254 244 226 230 243 258 242 198 223 241 230 220 220 249 243 215 216 222 221 212 212 222 196 147 139 147 139 121 111 118 127 120 114 117 114 107 110 122 137 147 158 160 152 149 147 147 149 148 148 148 144 142 137 134 135 132 129 125 121 121 121 118 116 113 110 110 101 84 82 87 90 89 87
232 220 212 216 215 225 229 227 228 216 212 233 236 250 254 226 215 232 250 245 223 225 232 230 221 219 252 243 202 209 211 221 227 207 210 201 156 146 154 147 130 122 125 121 112 118 123 122 123 129 144 162 168 169 164 155 149 147 147 149 147 148 148 146 147 142 139 140 137 133 129 125 123 121 120 120 120 120 117 112 106 99 99 96 92 92
237 218 204 230 229 229 233 237 238 214 200 226 233 244 258 223 209 220 225 235 237 228 228 226 216 214 237 234 222 247 196 176 316 226 205 198 162 147 152 138 122 117 123 129 133 135 135 136 136 140 159 180 180 173 166 159 155 153 156 156 151 149 149 150 152 146 142 143 141 138 134 129 125 125 128 129 128 126 124 121 115 106 104 102 101 106
236 226 200 221 237 234 232 238 239 206 196 231 228 223 241 219 204 216 211 216 234 238 234 230 219 215 214 197 240 319 69 57 31 31 114 158 140 136 130 108 105 117 128 136 146 148 147 151 151 152 167 185 191 186 172 165 164 162 164 164 158 155 155 154 151 145 144 146 145 146 144 138 137 135 132 132 132 131 129 125 121 121 121 120 119 113
220 230 216 210 220 227 234 236 213 191 209 230 225 214 228 223 207 218 217 214 228 232 228 224 222 216 163 157 151 72 60 56 51 52 63 83 96 110 114 105 106 118 125 138 148 144 145 158 161 161 167 180 192 192 179 169 169 169 169 166 158 157 157 152 146 144 144 148 152 154 153 151 149 141 133 136 139 134 130 129 129 131 129 127 124 118
217 225 216 209 205 202 220 238 229 208 204 212 228 232 223 223 225 226 225 228 235 232 220 208 207 208 145 137 115 103 95 74 70 70 78 95 113 121 115 112 113 117 128 151 152 145 161 173 168 165 171 183 191 190 182 174 173 170 167 164 158 156 156 150 147 147 147 152 156 156 155 155 151 143 138 141 142 134 129 134 133 128 128 126 121 117
232 234 205 204 210 194 202 229 240 237 217 196 215 233 227 217 222 227 234 240 256 263 233 207 161 82 109 107 96 141 169 119 86 80 81 81 108 141 126 119 126 139 149 164 167 163 175 177 171 172 178 188 193 188 182 177 173 168 162 161 160 158 155 151 149 150 152 154 153 153 154 153 149 145 140 140 141 136 133 136 134 130 131 130 127 122
231 244 206 196 206 202 199 216 231 236 238 210 210 220 221 207 201 216 218 193 181 254 244 138 86 107 134 148 174 174 145 98 80 72 71 62 69 90 99 111 129 148 157 166 169 163 167 171 174 177 183 200 202 188 176 173 170 168 163 158 160 158 151 149 151 153 155 153 151 152 152 150 147 143 141 140 141 139 137 139 138 135 135 135 134 128
241 264 265 218 208 201 200 210 220 225 228 232 222 227 231 208 193 203 222 201 205 235 223 162 165 177 165 176 185 169 131 105 101 69 65 61 63 63 55 87 122 141 151 154 152 147 155 171 179 180 195 214 210 182 166 167 166 166 164 154 155 156 149 147 152 153 154 152 149 150 148 145 144 143 145 145 144 144 145 145 141 136 136 135 133 132
258 267 293 272 229 194 194 212 216 217 223 230 222 228 255 228 199 197 210 224 220 229 230 189 176 174 296 209 169 153 133 123 125 91 70 63 60 54 39 56 96 114 120 128 135 140 152 167 184 194 211 214 199 177 159 158 157 155 156 145 140 148 149 148 150 149 149 147 144 147 146 144 144 147 149 148 149 153 154 151 143 137 140 141 137 138
248 243 285 287 246 188 186 217 221 213 218 232 241 233 242 240 226 237 221 234 229 220 233 208 169 97 355 358 84 111 121 118 109 96 81 66 49 41 34 38 73 99 118 130 134 155 169 178 185 193 207 201 183 179 162 146 146 141 140 140 138 144 148 149 149 141 135 136 139 140 142 145 147 148 150 153 155 157 156 154 148 144 149 149 145 144
205 217 257 271 236 202 195 203 214 229 223 221 229 235 236 200 181 219 239 244 242 226 229 223 160 96 1 6 62 88 102 105 101 103 103 94 84 58 9 8 40 75 100 146 164 182 187 181 176 177 183 173 157 157 146 134 142 145 141 142 147 155 153 143 140 129 122 125 131 136 141 146 149 150 153 156 157 156 154 154 153 154 155 155 154 152
188 186 207 248 231 230 239 203 201 226 239 233 222 222 230 222 199 206 224 233 240 252 257 232 128 104 18 354 55 90 94 91 93 104 112 112 120 130 125 47 58 75 6 233 185 172 165 161 154 146 141 131 124 125 125 129 141 149 150 144 140 147 141 123 121 123 126 126 128 137 145 148 152 154 155 156 156 157 156 155 158 161 159 159 163 161
336 174 206 241 251 264 277 284 256 239 238 239 238 232 227 228 235 236 234 222 223 266 303 104 119 98 11 347 46 92 103 94 84 87 96 98 104 111 120 137 147 147 169 224 165 134 129 125 119 110 108 114 119 117 118 128 134 138 146 145 134 132 130 129 127 128 133 135 135 141 145 150 156 157 156 157 157 158 159 158 160 164 162 160 165 167
283 207 207 239 277 286 284 288 287 273 251 233 232 246 248 238 233 234 250 264 237 260 284 213 133 102 5 343 70 93 101 101 95 81 89 95 96 94 100 113 122 128 135 125 90 94 101 97 92 90 95 100 103 105 110 119 125 127 133 136 134 134 138 140 138 139 142 141 143 148 150 154 160 162 161 161 161 161 160 161 163 165 166 166 169 175
303 275 240 231 223 259 269 263 273 290 288 260 239 238 246 250 249 246 252 268 249 232 248 257 120 111 172 165 112 109 107 108 115 114 102 100 97 93 89 88 92 103 112 108 98 95 95 93 85 79 87 93 93 99 107 111 119 123 123 128 133 139 151 152 149 155 155 147 147 155 161 166 170 170 167 166 167 165 161 164 167 169 173 175 176 181
320 307 321 288 224 215 240 227 247 308 310 294 268 249 244 244 254 312 349 275 260 240 247 247 111 124 146 134 117 111 109 109 112 111 103 93 90 95 97 90 85 88 95 98 99 97 95 97 94 84 87 96 98 101 103 106 114 117 121 133 139 145 160 167 165 162 155 148 149 157 167 174 176 173 170 170 171 169 164 165 168 172 179 180 177 180
190 283 58 7 256 139 181 250 327 341 319 298 288 305 305 267 238 256 291 281 250 191 303 120 137 139 133 127 120 113 109 105 103 100 94 91 95 100 101 96 90 85 86 90 95 98 97 100 105 105 100 94 93 92 89 84 75 66 74 108 142 159 170 176 171 159 151 149 154 165 172 174 174 172 169 170 174 175 173 169 169 177 185 186 183 181
226 221 138 130 182 111 98 336 1 353 323 312 319 341 335 329 315 280 273 282 273 198 360 76 132 128 124 127 122 116 110 105 102 100 97 99 101 99 93 90 90 84 76 71 74 78 79 86 99 106 101 92 84 79 76 79 78 69 52 15 356 156 164 167 163 155 152 154 158 167 170 168 170 170 168 174 179 179 179 178 180 187 192 194 191 185
241 236 165 178 240 220 204 252 338 338 317 319 339 355 333 353 21 15 353 324 310 238 143 138 126 121 123 120 107 101 101 100 102 106 108 105 98 93 91 88 87 84 77 68 63 61 59 58 70 93 100 101 99 91 83 86 94 97 100 61 355 2 38 94 137 143 144 147 150 157 160 158 161 164 166 173 180 181 185 188 190 193 200 205 202 195
221 241 209 215 236 233 228 233 242 265 298 309 326 358 7 38 47 27 29 42 41 94 131 133 117 109 112 108 98 96 99 100 105 112 113 105 96 90 88 86 85 81 76 70 64 59 54 49 46 54 64 73 84 95 107 116 114 113 123 123 95 32 29 42 57 77 101 123 132 138 144 146 149 156 164 172 181 190 193 197 200 202 208 211 206 203
199 212 215 236 246 233 223 222 228 233 248 283 302 323 349 31 58 40 36 63 79 95 110 113 106 99 101 106 103 106 113 117 115 111 105 97 93 92 86 83 84 81 77 72 66 61 56 51 45 43 44 43 45 50 64 91 100 98 115 126 119 107 85 69 61 51 59 114 129 123 126 132 136 144 158 171 184 195 193 196 206 209 212 216 214 212
222 209 198 228 248 249 237 219 215 218 221 247 272 281 293 330 61 74 56 73 102 113 111 108 112 123 134 134 125 118 122 123 114 110 105 92 86 87 83 77 75 75 74 72 68 63 58 54 48 44 41 39 38 35 32 40 55 55 55 86 111 113 100 94 105 109 92 102 102 100 112 122 122 130 151 166 179 193 195 198 207 209 210 220 228 227
300 271 246 236 234 235 240 224 208 207 209 223 259 285 277 251 128 108 94 99 122 140 135 121 128 134 138 144 145 140 135 128 116 107 100 89 81 79 80 77 71 68 65 62 61 58 55 52 47 41 39 37 35 32 26 23 27 30 31 38 57 98 108 97 94 89 68 63 66 59 73 100 96 76 99 148 168 195 218 224 225 224 221 225 231 233
284 269 296 2 266 243 341 358 244 218 206 236 322 342 335 173 132 102 83 93 114 125 112 112 127 135 139 142 135 126 113 101 93 89 89 89 86 82 78 75 73 70 67 61 57 53 47 45 41 37 36 34 31 30 27 21 18 20 25 28 26 36 74 82 68 55 48 50 50 39 41 66 70 44 30 17 23 342 277 265 252 246 244 240 238 236
230 252 196 101 273 276 28 27 246 218 220 352 347 14 49 83 96 89 73 73 95 107 108 115 128 134 135 132 120 109 102 97 92 93 100 103 102 98 92 85 77 71 65 58 57 55 50 46 41 35 30 27 26 27 28 25 21 20 23 25 20 20 37 61 59 46 37 34 32 29 31 37 38 36 25 341 272 215 239 244 238 239 241 235 230 232
186 216 145 97 50 319 266 180 187 248 342 23 23 26 50 79 90 91 79 65 85 109 120 129 138 137 130 126 121 115 114 110 101 96 99 100 99 98 95 89 82 77 71 60 53 50 49 51 52 46 38 34 33 32 30 29 29 26 22 22 22 20 25 38 43 37 30 24 19 18 20 22 21 19 10 356 341 289 255 244 236 240 243 239 236 237
156 161 150 101 84 290 257 193 106 360 348 73 55 18 20 43 19 14 89 108 110 123 125 125 131 132 127 124 124 122 117 110 99 88 86 89 91 90 89 90 89 89 92 88 75 64 56 58 61 56 50 46 42 38 34 30 32 32 24 18 19 20 21 26 30 28 23 18 12 9 9 10 9 6 0 353 346 343 341 328 292 271 260 252 247 247
254 169 180 164 169 218 239 229 165 133 69 37 18 0 358 3 343 335 66 122 126 119 107 102 111 121 124 125 125 126 122 110 101 100 100 98 97 98 103 106 103 100 103 108 106 94 84 85 82 67 58 53 47 40 33 28 29 31 30 23 13 9 17 24 23 19 15 10 4 359 358 359 357 351 344 338 334 336 340 339 332 320 303 283 264 254
269 229 218 224 213 218 235 263 278 117 91 19 5 351 339 340 338 322 248 134 125 121 113 109 112 114 118 125 131 141 145 125 115 117 112 105 100 99 106 109 105 100 99 102 109 111 108 109 96 70 54 47 45 38 26 25 23 18 26 28 11 2 16 24 15 8 3 358 353 348 346 345 341 334 327 321 320 321 322 321 319 315 311 306 293 274
316 301 257 251 240 239 246 267 359 92 77 10 359 349 326 327 330 306 222 157 120 123 122 123 126 126 134 145 150 160 160 129 133 132 121 112 104 97 95 95 92 90 87 85 85 91 100 99 84 69 57 44 40 30 17 21 19 7 14 18 5 7 19 15 5 0 354 347 344 338 333 327 322 319 317 312 310 309 306 304 302 300 298 297 294 286
339 349 324 291 271 267 264 218 91 101 65 347 338 335 314 307 314 308 153 126 113 117 120 127 131 130 136 147 143 81 71 93 114 123 124 121 115 109 105 97 89 87 85 79 68 63 76 83 71 60 56 44 32 20 18 23 19 13 16 12 5 12 15 3 355 353 346 338 333 326 321 318 314 312 309 304 301 299 296 293 291 288 286 285 283 281
1 2 352 347 346 320 288 150 108 97 30 312 313 323 327 321 73 91 69 77 101 112 111 106 98 95 97 99 92 83 89 99 108 114 115 111 105 103 101 97 92 88 89 90 74 54 53 76 70 53 46 39 23 14 15 17 18 19 17 11 7 6 359 349 345 342 335 330 326 321 319 316 312 309 305 300 296 294 290 287 283 281 280 279 277 276
16 346 1 33 3 328 360 69 94 91 27 331 321 330 354 29 111 117 71 58 70 88 90 83 80 86 93 95 95 97 98 98 99 101 101 99 97 96 92 90 89 85 87 97 83 54 38 72 74 54 50 47 28 19 17 15 20 19 7 358 357 351 343 339 340 336 331 328 323 320 318 314 311 308 305 301 299 296 292 288 283 279 275 274 273 271
23 346 7 48 11 329 33 64 66 77 48 17 17 51 38 36 74 101 78 67 75 87 86 81 84 90 94 95 96 98 98 98 98 98 99 97 96 98 97 92 85 80 79 85 76 49 24 52 72 61 66 63 41 34 31 24 22 7 350 345 344 336 331 331 331 327 323 320 315 313 313 310 307 305 302 301 301 300 297 294 290 285 280 275 273 271
36 22 14 45 44 38 65 89 92 84 71 54 60 78 57 43 53 68 65 59 65 78 78 75 72 71 79 100 108 101 96 97 91 85 93 99 92 88 94 91 80 70 68 75 71 41 8 27 78 78 72 68 67 74 61 34 18 336 324 329 327 321 319 316 313 311 309 306 304 303 302 300 300 300 299 299 299 297 298 299 296 292 287 281 276 272
50 27 352 75 87 75 70 85 94 87 77 66 56 58 59 57 59 66 67 62 57 63 66 64 57 46 43 70 101 103 98 101 99 92 94 99 95 92 94 88 75 61 55 65 62 30 357 5 90 89 78 73 94 150 186 355 326 301 310 326 325 321 320 313 310 311 310 306 304 303 302 300 299 298 299 300 299 295 293 294 295 294 291 286 282 278
50 357 17 85 114 109 88 98 101 92 87 83 73 67 69 70 67 67 73 75 70 68 68 65 64 55 45 48 65 70 59 57 73 91 98 95 103 110 97 81 65 55 53 59 52 15 342 2 69 74 79 58 306 296 328 348 336 323 334 342 330 321 319 317 317 318 314 308 305 304 303 301 299 300 300 298 297 294 289 285 287 291 292 290 285 281
11 321 358 75 69 67 100 112 115 110 107 107 101 89 84 86 84 78 79 84 83 85 86 82 81 81 73 71 87 97 90 69 46 28 31 58 81 85 75 60 48 45 44 50 40 352 320 13 78 57 316 332 346 348 353 353 344 337 340 338 330 327 327 326 326 322 313 307 305 303 303 302 302 303 301 296 294 296 295 293 291 290 291 293 295 298
311 318 355 69 84 93 111 120 121 122 118 106 102 107 108 105 104 105 110 112 108 106 111 112 114 118 119 122 131 133 123 109 85 31 354 26 68 63 51 38 35 29 17 23 6 314 296 49 51 345 331 350 2 2 358 349 338 334 334 332 331 333 331 327 323 317 310 308 305 303 304 304 303 303 301 299 298 297 296 298 300 299 295 293 294 302
29 10 14 57 110 113 123 129 126 123 120 111 107 114 117 119 126 131 130 124 118 115 123 132 138 143 146 148 144 128 106 95 84 38 357 34 65 64 45 31 17 358 358 3 325 281 256 52 1 347 356 360 359 356 348 341 335 334 335 334 334 334 331 325 318 310 307 308 307 306 307 305 301 300 300 299 299 297 295 296 298 298 297 296 295 299
44 30 24 30 61 77 98 121 107 82 117 128 128 126 128 134 140 137 123 112 115 126 134 133 141 159 160 140 119 111 103 93 86 57 19 25 37 38 32 20 358 339 346 345 315 303 17 33 358 356 360 350 348 349 344 339 336 336 337 338 339 339 333 324 316 309 306 305 307 310 311 307 302 301 300 297 296 297 297 297 297 294 293 297 300 301